Regional Weather Roundup
Issued by NWS

Home | Current Version | Previous Version | Text Only | Print | Product List | Glossary On
Versions: 1 2 3 4 5 6 7 8 9 10 11 12 13 14 15 16 17 18 19 20 21 22 23 24 25 26 27 28
000
ASUS43 KMPX 031110
RWRMN
WEATHER ROUNDUP FOR MINNESOTA
NATIONAL WEATHER SERVICE TWIN CITIES/CHANHASSEN MN
600 AM CDT TUE AUG 03 2021


NOTE: "FAIR" INDICATES FEW OR NO CLOUDS BELOW 12,000 FEET WITH NO
SIGNIFICANT WEATHER AND/OR OBSTRUCTIONS TO VISIBILITY. N/A MEANS
CURRENT SKY AND/OR WEATHER CONDITIONS ARE NOT AVAILABLE.

MNZ060>063-068>070-031200-
   Twin Cities Metro

CITY           SKY/WX    TMP DP  RH WIND       PRES   REMARKS
TWIN CITIES    PTCLDY    64  55  72 SW3       30.10S
ST PAUL        CLEAR     64  55  72 W5        30.10S
CRYSTAL        CLEAR     60  53  77 CALM      30.08S
BLAINE         CLEAR     66  54  63 CALM      30.09S
LAKEVILLE      CLEAR     59  54  82 CALM      30.11S
EDEN PRAIRIE   CLEAR     59  55  87 SW3       30.09S
SOUTH ST PAUL  CLEAR     64  54  71 CALM      30.10S
LAKE ELMO      FAIR      55  52  88 CALM      30.10F
$$
MNZ001>005-007-008-013>017-022>024-027-028-031200-
   Northwest Minnesota

CITY           SKY/WX    TMP DP  RH WIND       PRES   REMARKS
BEMIDJI        PTCLDY    58  55  89 SW3       30.04F
HALLOCK        PTCLDY    57  52  82 CALM      29.99F
ROSEAU         PTCLDY    55  52  88 S5        30.01R
WARROAD        PTCLDY    55  52  88 SW3       30.01S FOG
THIEF RVR FALL PTCLDY    59  54  83 SW5       30.03F
CROOKSTON      PTCLDY    55  52  88 S3        30.03S
FOSSTON        PTCLDY    54  50  87 S6        30.05S FOG
DETROIT LAKES  PTCLDY    64  55  72 SW6       30.07R
MOORHEAD       PTCLDY    61  54  77 CALM      30.06R
PARK RAPIDS    PTCLDY    60  54  80 S5        30.06S HAZE
MAHNOMEN       FAIR      58  55  90 S8        30.05S
$$
MNZ006-009>011-018-025>026-031200-
   North Central Minnesota

CITY           SKY/WX    TMP DP  RH WIND       PRES   REMARKS
BAUDETTE       CLEAR     54  52  93 CALM      30.01S
INTL FALLS     CLOUDY    54  51  90 CALM      30.00S
WASKISH        CLEAR     68  59  73 W9        30.03R
BIG FORK         N/A     52  52 100 CALM      30.09S
LONGVILLE      CLEAR     64  55  72 SW3       30.06S
GRAND RAPIDS   CLEAR     65  56  72 W5        30.00S
CRANE LAKE     CLEAR     52  50  93 CALM      30.04S FOG
ORR            CLEAR     55  52  88 CALM      30.02S FOG
COOK           CLEAR     54  52  94 CALM      30.03F
WALKER         MOSUNNY   63  54  72 W5        30.05S
$$
MNZ012-019>021-037-031200-
   Northeast Minnesota

CITY           SKY/WX    TMP DP  RH WIND       PRES   REMARKS
DULUTH         MOCLDY    66  54  65 NW9       30.05S
ELY            PTCLDY    57  52  82 CALM      30.04S
HIBBING        PTCLDY    50  47  89 CALM      30.05S FOG
EVELETH        CLEAR     54  52  94 CALM      30.06S
DULUTH HARBOR  PTCLDY    64  55  72 SW9       30.04S
TWO HARBORS    PTCLDY    66  52  59 W7        30.02S
GRAND MARAIS     N/A     71  52  50 VRB6      29.97R
G MARAIS ARPRT PTCLDY    61  48  63 W3        30.03S
$$
MNZ029>031-032-039>041-046>048-054>057-064-031200-
   West Central Minnesota

CITY           SKY/WX    TMP DP  RH WIND       PRES   REMARKS
FERGUS FALLS   CLEAR     63  55  77 SE3       30.04S
WHEATON        CLEAR     57  54  88 CALM      30.08S FOG
MORRIS         CLEAR     55  55 100 CALM      30.08F FOG
ALEXANDRIA     PTCLDY    60  55  83 SW3       30.10S HAZE
WADENA         PTCLDY    57  54  88 W3        30.07S
GLENWOOD       PTCLDY    57  55  94 SW6       30.09S FOG
APPLETON       CLEAR     57  54  88 CALM      30.07F FOG
BENSON         PTCLDY    54  52  94 CALM      30.09F FOG
ORTONVILLE     CLEAR     57  54  88 CALM      30.07F
MADISON        CLEAR     57  54  88 CALM      30.09S FOG
WILLMAR        FAIR      55  52  88 CALM      30.12F FOG
$$
MNZ033>034-036-042>043-049>051-058-059-031200-
   Central Minnesota

CITY           SKY/WX    TMP DP  RH WIND       PRES   REMARKS
ST CLOUD       CLEAR     53  51  93 CALM      30.09R FOG
SAUK CENTRE    FAIR      55  54  96 CALM      30.09S FOG
PAYNESVILLE    CLEAR     55  55 100 CALM      30.10S FOG
AITKIN         CLEAR     52  52 100 CALM      30.07S FOG
PINE RIVER     CLEAR     54  52  94 CALM      30.10S
BRAINERD       MOCLDY    59  53  80 S6        30.08R HAZE
STAPLES        PTCLDY    55  54  94 CALM      30.07F
LONG PRAIRIE   FAIR      54  54 100 CALM      30.09S FOG
LITTLE FALLS   CLOUDY    52  52 100 CALM      30.09S FOG
CAMP RIPLEY    FAIR      55  53  93 CALM      30.09S
BUFFALO        CLEAR     56  51  85 MISG      30.11S
MAPLE LAKE     CLEAR     56  56  97 CALM      30.10S FOG
HUTCHINSON     PTCLDY    53  52  97 CALM      30.11S
$$
MNZ037-044-045-052-053-031200-
   East Central Minnesota

CITY           SKY/WX    TMP DP  RH WIND       PRES   REMARKS
PRINCETON      CLEAR     54  52  94 CALM      30.09S
MORA           CLEAR     50  50 100 CALM      30.10S FOG
CAMBRIDGE      CLEAR     57  48  72 CALM      30.09S
RUSH CITY      CLEAR     52  52 100 CALM      30.09S
MOOSE LAKE     CLOUDY    54  52  94 CALM      30.05F
HINCKLEY       CLOUDY    52  52 100 CALM      30.08S
CLOQUET        PTCLDY    63  52  67 W7        30.05S
MCGREGOR       PTCLDY    59  54  82 CALM      30.08R
$$
MNZ071>073-080-081-089-090-097-098-031200-
   Southwest Minnesota

CITY           SKY/WX    TMP DP  RH WIND       PRES   REMARKS
MONTEVIDEO     CLEAR     55  54  94 CALM      30.09S FOG
GRANITE FALLS  MOCLDY    58  55  91 CALM      30.10S FOG
CANBY          CLEAR     65  57  77 SW3       30.09S
MARSHALL       CLEAR     62  57  83 SW12      30.09F
REDWOOD FALLS  CLEAR     55  53  93 S5        30.09S FOG
OLIVIA         PTCLDY    55  52  88 SE3       30.09S FOG
PIPESTONE      CLEAR     55  54  94 SW3       30.12F
WINDOM         PTCLDY    55  52  88 CALM      30.13R
WORTHINGTON    PTCLDY    58  55  90 SW6       30.14S
JACKSON        PTCLDY    55  52  88 SW3       30.14S
TRACY          CLEAR     62  54  75 SW8       30.11S
SLAYTON        PTCLDY    60  55  85 SW3       30.13S
$$
MNZ065>067-074>077-082>085-091>093-031200-
   South Central Minnesota

CITY           SKY/WX    TMP DP  RH WIND       PRES   REMARKS
MANKATO        CLEAR     58  54  86 CALM      30.13R
NEW ULM        CLEAR     57  52  82 CALM      30.11S
ST JAMES         N/A     55  54  94 MISG      30.12S
FAIRMONT       CLEAR     54  51  90 S3        30.13S
GLENCOE        CLEAR     55  53  91 CALM      30.10S
FARIBAULT      CLEAR     55  54  94 CALM      30.12S
OWATONNA       CLEAR     55  52  88 CALM      30.13S
WASECA         CLEAR     50  50 100 S3        30.14S
ALBERT LEA     CLEAR     55  54  94 CALM      30.14S
$$
MNZ078>079-086>088-094>096-031200-
   Southeast Minnesota

CITY           SKY/WX    TMP DP  RH WIND       PRES   REMARKS
ROCHESTER      CLEAR     56  52  86 SW7       30.13F
RED WING       CLEAR     55  54  94 CALM      30.10S
STANTON        CLEAR     57  53  88 S5        30.10S
DODGE CENTER   CLEAR     54  48  82 SW5       30.13S
WINONA         CLEAR     55  55 100 CALM      30.12S
AUSTIN         CLEAR     52  52 100 CALM      30.14S
PRESTON        CLEAR     57  52  84 W5        30.14S
$$
ABBREVIATIONS USED IN REMARKS
   TC - TEMPERATURES IN CELSIUS
  WCI - WIND CHILL INDEX
   HX - HEAT INDEX
  VSB - VISIBILITY
$$



USA.gov is the U.S. government's official web portal to all federal, state and local government web resources and services.